Weather History for Iron Mountain, MI

Change the Weather History Date:

Thursday, August 1, 2013

  Actual Average Record
Temperature  
Mean Temperature 64 °F -  
Max Temperature 75 °F 78 °F 94 °F (1955)
Min Temperature 52 °F 55 °F 43 °F (1962)
Degree Days  
Heating Degree Days 2    
Growing Degree Days 14 (Base 50)    
Moisture  
Dew Point 51 °F    
Average Humidity 66    
Maximum Humidity 93    
Minimum Humidity 37    
Precipitation  
Precipitation 0.00 in - - ()
Sea Level Pressure  
Sea Level Pressure 29.90 in    
Wind  
Wind Speed 4 mph (WNW)    
Max Wind Speed 16 mph    
Max Gust Speed 21 mph    
Visibility 10 miles    
Events      
Averages and records for this station are not official NWS values.
T = Trace of Precipitation, MM = Missing Value Source: NWS Daily Summary

Daily Weather History Graph

Daily Weather History Graph

Search for Another Location

Airport:

Trip Planner

Search our weather history database for the weather conditions in past years. The results will help you decide how hot, cold, wet, or windy it might be!

Date:

Astronomy

Aug. 01, 2013 Rise Set
Actual Time 5:35 AM CDT 8:21 PM CDT
Civil Twilight 5:01 AM CDT 8:55 PM CDT
Nautical Twilight 4:17 AM CDT 9:38 PM CDT
Astronomical Twilight 3:26 AM CDT 10:29 PM CDT
Moon 1:10 AM CDT (8/1) 4:31 PM CDT (8/1)
Length of Visible Light 15h 53m
Length of Day
14h 45m
Waning Crescent, 23% of the Moon is Illuminated
Aug 1
Waning Crescent
Aug 6
New
Aug 14
First Quarter
Aug 20
Full
Aug 28
Last Quarter

Hourly Weather History & Observations

Time (CDT) Temp. Dew Point Humidity Pressure Visibility Wind Dir Wind Speed Gust Speed Precip Events Conditions
12:54 AM 55.0 °F 52.0 °F 89% 29.90 in 10.0 mi Calm Calm - N/A   Clear
1:54 AM 54.0 °F 51.1 °F 90% 29.91 in 10.0 mi Calm Calm - N/A   Clear
2:54 AM 54.0 °F 51.1 °F 90% 29.91 in 10.0 mi Calm Calm - N/A   Clear
3:54 AM 52.0 °F 50.0 °F 93% 29.91 in 10.0 mi Calm Calm - N/A   Clear
4:54 AM 55.0 °F 51.1 °F 86% 29.91 in 10.0 mi Calm Calm - N/A   Clear
5:54 AM 55.0 °F 51.1 °F 86% 29.91 in 10.0 mi Calm Calm - N/A   Clear
6:54 AM 55.0 °F 51.1 °F 86% 29.92 in 10.0 mi Calm Calm - N/A   Clear
7:54 AM 57.0 °F 52.0 °F 83% 29.92 in 10.0 mi WNW 6.9 mph - N/A   Clear
8:54 AM 63.0 °F 53.1 °F 70% 29.92 in 10.0 mi West 9.2 mph - N/A   Clear
9:54 AM 69.1 °F 52.0 °F 54% 29.91 in 10.0 mi WNW 12.7 mph - N/A   Clear
10:54 AM 71.1 °F 52.0 °F 51% 29.91 in 10.0 mi NW 15.0 mph 19.6 mph N/A   Mostly Cloudy
11:54 AM 73.0 °F 50.0 °F 44% 29.91 in 10.0 mi NW 13.8 mph 20.7 mph N/A   Scattered Clouds
12:54 PM 73.9 °F 50.0 °F 43% 29.90 in 10.0 mi West 16.1 mph 20.7 mph N/A   Scattered Clouds
1:54 PM 73.9 °F 51.1 °F 45% 29.90 in 10.0 mi WNW 9.2 mph - N/A   Mostly Cloudy
2:54 PM 73.9 °F 51.1 °F 45% 29.90 in 10.0 mi WNW 9.2 mph - N/A   Mostly Cloudy
3:54 PM 75.0 °F 48.9 °F 40% 29.89 in 10.0 mi NW 8.1 mph - N/A   Scattered Clouds
4:54 PM 75.9 °F 48.0 °F 37% 29.88 in 10.0 mi WNW 9.2 mph 20.7 mph N/A   Clear
5:54 PM 73.9 °F 48.9 °F 41% 29.88 in 10.0 mi WNW 9.2 mph - N/A   Partly Cloudy
6:54 PM 73.0 °F 50.0 °F 44% 29.87 in 10.0 mi NNW 5.8 mph - N/A   Clear
7:54 PM 68.0 °F 52.0 °F 56% 29.87 in 10.0 mi NW 3.5 mph - N/A   Clear
8:54 PM 61.0 °F 53.1 °F 75% 29.89 in 10.0 mi Calm Calm - N/A   Scattered Clouds
9:54 PM 62.1 °F 54.0 °F 75% 29.88 in 10.0 mi Calm Calm - N/A   Overcast
10:54 PM 60.1 °F 55.9 °F 86% 29.87 in 10.0 mi Calm Calm - N/A   Overcast
11:54 PM 57.0 °F 53.1 °F 87% 29.86 in 10.0 mi Calm Calm - N/A   Clear